AXM104 VGHS-VYYY

Flight info

Callsign AXM104
Flight time 1h 19m
Altitude 39000
Route ADMIL2 ADMIL G463 DORLI OKIKO1B
Aircraft A320/M-SDE3FGHIRWY/LB1

Departure

Time 2026-05-04 18:16
Airport Hazrat Shahjalal International Airport (VGHS)

Arrival

Time 2026-05-04 19:35
Airport Yangon International Airport (VYYY)
Time Latitude Longitude Altitude Speed Heading
2026-05-04 17:56 23.84687 90.40480 36 ft 0 kts 53°
2026-05-04 18:03 23.84683 90.40474 36 ft 2 kts 53°
2026-05-04 18:03 23.84670 90.40457 36 ft 3 kts 51°
2026-05-04 18:03 23.84657 90.40440 34 ft 3 kts 46°
2026-05-04 18:03 23.84643 90.40425 36 ft 3 kts 37°
2026-05-04 18:04 23.84626 90.40414 34 ft 3 kts 11°
2026-05-04 18:04 23.84613 90.40413 34 ft 1 kts 327°
2026-05-04 18:04 23.84611 90.40414 34 ft 0 kts 325°
2026-05-04 18:06 23.84627 90.40402 34 ft 9 kts 325°
2026-05-04 18:06 23.84676 90.40363 35 ft 9 kts 323°
2026-05-04 18:07 23.84680 90.40298 36 ft 10 kts 236°
2026-05-04 18:07 23.84621 90.40236 36 ft 12 kts 192°
2026-05-04 18:07 23.84553 90.40274 36 ft 11 kts 144°
2026-05-04 18:07 23.84488 90.40325 36 ft 12 kts 144°
2026-05-04 18:08 23.84420 90.40379 36 ft 12 kts 144°
2026-05-04 18:08 23.84347 90.40437 36 ft 14 kts 144°
2026-05-04 18:08 23.84250 90.40514 35 ft 20 kts 144°
2026-05-04 18:08 23.84121 90.40616 36 ft 25 kts 144°
2026-05-04 18:09 23.83794 90.40876 36 ft 31 kts 144°
2026-05-04 18:09 23.83491 90.41115 36 ft 13 kts 156°
2026-05-04 18:10 23.83422 90.41068 36 ft 12 kts 233°
2026-05-04 18:10 23.83374 90.40998 36 ft 11 kts 234°
2026-05-04 18:10 23.83368 90.40990 36 ft 0 kts 234°
2026-05-04 18:11 23.83368 90.40989 36 ft 1 kts 234°
2026-05-04 18:11 23.83332 90.40935 36 ft 13 kts 234°
2026-05-04 18:11 23.83283 90.40862 36 ft 11 kts 233°
2026-05-04 18:11 23.83226 90.40777 37 ft 16 kts 234°
2026-05-04 18:12 23.83197 90.40682 35 ft 12 kts 314°
2026-05-04 18:12 23.83212 90.40671 37 ft 0 kts 323°
2026-05-04 18:15 23.83213 90.40671 37 ft 2 kts 323°
2026-05-04 18:15 23.84115 90.39955 36 ft 148 kts 324°
2026-05-04 18:15 23.85033 90.39234 502 ft 164 kts 325°
2026-05-04 18:16 23.85966 90.38509 1241 ft 168 kts 333°
2026-05-04 18:16 23.87173 90.38266 1677 ft 190 kts 12°
2026-05-04 18:16 23.88379 90.38953 2042 ft 208 kts 51°
2026-05-04 18:17 23.88444 90.42133 2941 ft 248 kts 130°
2026-05-04 18:17 23.86991 90.43176 3659 ft 260 kts 167°
2026-05-04 18:17 23.83326 90.43055 5521 ft 270 kts 191°
2026-05-04 18:18 23.81440 90.42873 6419 ft 278 kts 173°
2026-05-04 18:18 23.79595 90.43596 7264 ft 286 kts 152°
2026-05-04 18:18 23.77938 90.44820 8144 ft 291 kts 142°
2026-05-04 18:18 23.76396 90.46243 9008 ft 297 kts 139°
2026-05-04 18:19 23.73254 90.49369 10328 ft 323 kts 138°
2026-05-04 18:19 23.71533 90.51036 10870 ft 336 kts 139°
2026-05-04 18:19 23.69749 90.52713 11629 ft 342 kts 140°
2026-05-04 18:20 23.67918 90.54393 12428 ft 346 kts 141°
2026-05-04 18:20 23.66048 90.56081 13220 ft 351 kts 141°
2026-05-04 18:20 23.64152 90.57780 13966 ft 355 kts 142°
2026-05-04 18:20 23.62228 90.59497 14643 ft 359 kts 142°
2026-05-04 18:21 23.60283 90.61232 15315 ft 363 kts 142°
2026-05-04 18:21 23.58321 90.62987 15984 ft 367 kts 142°
2026-05-04 18:21 23.56334 90.64767 16646 ft 371 kts 143°
2026-05-04 18:21 23.54324 90.66569 17316 ft 375 kts 143°
2026-05-04 18:22 23.52298 90.68386 17972 ft 380 kts 143°
2026-05-04 18:22 23.50245 90.70225 18560 ft 384 kts 143°
2026-05-04 18:22 23.48174 90.72085 19126 ft 387 kts 143°
2026-05-04 18:22 23.46085 90.73965 19702 ft 390 kts 143°
2026-05-04 18:23 23.43985 90.75854 20275 ft 393 kts 144°
2026-05-04 18:23 23.41863 90.77757 20810 ft 397 kts 144°
2026-05-04 18:23 23.39721 90.79675 21335 ft 400 kts 144°
2026-05-04 18:23 23.37565 90.81608 21868 ft 403 kts 144°
2026-05-04 18:24 23.35391 90.83556 22378 ft 406 kts 144°
2026-05-04 18:24 23.33201 90.85516 22892 ft 410 kts 144°
2026-05-04 18:24 23.30991 90.87493 23394 ft 413 kts 144°
2026-05-04 18:24 23.28763 90.89490 23820 ft 416 kts 144°
2026-05-04 18:25 23.26519 90.91503 24223 ft 419 kts 144°
2026-05-04 18:25 23.24295 90.93499 24602 ft 422 kts 145°
2026-05-04 18:25 23.21985 90.95565 24995 ft 426 kts 145°
2026-05-04 18:25 23.19687 90.97614 25385 ft 429 kts 145°
2026-05-04 18:26 23.17406 90.99647 25759 ft 432 kts 145°
2026-05-04 18:26 23.15083 91.01743 26141 ft 435 kts 144°
2026-05-04 18:26 23.12757 91.03870 26517 ft 439 kts 144°
2026-05-04 18:26 23.10423 91.06020 26886 ft 442 kts 144°
2026-05-04 18:27 23.08038 91.08220 27223 ft 446 kts 144°
2026-05-04 18:27 23.05691 91.10378 27562 ft 449 kts 144°
2026-05-04 18:27 23.03295 91.12573 27905 ft 452 kts 144°
2026-05-04 18:27 23.00878 91.14779 28246 ft 456 kts 144°
2026-05-04 18:28 22.98440 91.16998 28575 ft 459 kts 144°
2026-05-04 18:28 22.95989 91.19228 28916 ft 462 kts 144°
2026-05-04 18:28 22.93517 91.21479 29252 ft 465 kts 144°
2026-05-04 18:28 22.91838 91.23007 29477 ft 467 kts 144°
2026-05-04 18:29 22.88524 91.26019 29922 ft 471 kts 144°
2026-05-04 18:29 22.86001 91.28312 30209 ft 474 kts 144°
2026-05-04 18:29 22.84324 91.29836 30401 ft 476 kts 144°
2026-05-04 18:29 22.81783 91.32147 30683 ft 478 kts 144°
2026-05-04 18:30 22.76665 91.36797 31256 ft 482 kts 144°
2026-05-04 18:30 22.74056 91.39164 31530 ft 484 kts 144°
2026-05-04 18:30 22.71477 91.41504 31890 ft 483 kts 144°
2026-05-04 18:31 22.68902 91.43843 32311 ft 482 kts 144°
2026-05-04 18:31 22.66340 91.46169 32727 ft 481 kts 144°
2026-05-04 18:31 22.63779 91.48492 33142 ft 479 kts 144°
2026-05-04 18:31 22.61226 91.50803 33557 ft 478 kts 144°
2026-05-04 18:32 22.58673 91.53112 33955 ft 477 kts 144°
2026-05-04 18:32 22.56158 91.55387 34283 ft 477 kts 144°
2026-05-04 18:32 22.53609 91.57689 34618 ft 476 kts 144°
2026-05-04 18:32 22.51070 91.59978 34948 ft 475 kts 144°
2026-05-04 18:33 22.48532 91.62265 35274 ft 474 kts 144°
2026-05-04 18:33 22.45997 91.64548 35597 ft 473 kts 144°
2026-05-04 18:33 22.43468 91.66829 35903 ft 472 kts 144°
2026-05-04 18:33 22.40952 91.69100 36236 ft 470 kts 144°
2026-05-04 18:34 22.38443 91.71363 36554 ft 469 kts 144°
2026-05-04 18:34 22.35936 91.73617 36854 ft 468 kts 144°
2026-05-04 18:34 22.33434 91.75865 37147 ft 468 kts 144°
2026-05-04 18:34 22.30934 91.78110 37429 ft 467 kts 144°
2026-05-04 18:35 22.28434 91.80355 37719 ft 466 kts 144°
2026-05-04 18:35 22.25942 91.82594 38004 ft 465 kts 144°
2026-05-04 18:35 22.23452 91.84833 38284 ft 464 kts 144°
2026-05-04 18:35 22.20971 91.87059 38546 ft 464 kts 144°
2026-05-04 18:36 22.18489 91.89277 38759 ft 463 kts 144°
2026-05-04 18:36 22.16042 91.91459 38874 ft 462 kts 144°
2026-05-04 18:36 22.13533 91.93695 38908 ft 463 kts 144°
2026-05-04 18:37 22.08509 91.98168 38913 ft 473 kts 144°
2026-05-04 18:37 22.03416 92.02705 38912 ft 482 kts 144°
2026-05-04 18:38 21.98235 92.07318 38912 ft 484 kts 144°
2026-05-04 18:38 21.93042 92.11940 38912 ft 484 kts 144°
2026-05-04 18:39 21.87817 92.16508 38915 ft 484 kts 145°
2026-05-04 18:39 21.82561 92.21034 38922 ft 484 kts 145°
2026-05-04 18:40 21.77289 92.25571 38921 ft 485 kts 145°
2026-05-04 18:40 21.72023 92.30118 38941 ft 486 kts 144°
2026-05-04 18:41 21.66834 92.34616 38951 ft 486 kts 144°
2026-05-04 18:41 21.61736 92.39427 38941 ft 489 kts 140°
2026-05-04 18:42 21.56820 92.44497 38946 ft 489 kts 139°
2026-05-04 18:42 21.51939 92.49527 38946 ft 489 kts 140°
2026-05-04 18:43 21.46966 92.54506 38943 ft 488 kts 140°
2026-05-04 18:43 21.41974 92.59432 38944 ft 488 kts 140°
2026-05-04 18:44 21.36982 92.64375 38950 ft 488 kts 140°
2026-05-04 18:44 21.32007 92.69330 38954 ft 488 kts 140°
2026-05-04 18:45 21.27061 92.74250 38953 ft 488 kts 140°
2026-05-04 18:45 21.22079 92.79201 38949 ft 488 kts 140°
2026-05-04 18:46 21.17088 92.84143 38954 ft 488 kts 140°
2026-05-04 18:46 21.12095 92.89081 38951 ft 488 kts 140°
2026-05-04 18:47 21.07109 92.94016 38942 ft 488 kts 140°
2026-05-04 18:47 21.02123 92.98947 38949 ft 488 kts 140°
2026-05-04 18:48 20.97133 93.03869 38940 ft 488 kts 140°
2026-05-04 18:48 20.92176 93.08766 38944 ft 488 kts 140°
2026-05-04 18:49 20.87193 93.13680 38943 ft 488 kts 140°
2026-05-04 18:49 20.82202 93.18589 38940 ft 487 kts 140°
2026-05-04 18:50 20.77290 93.23426 38935 ft 487 kts 140°
2026-05-04 18:50 20.72382 93.28256 38944 ft 487 kts 140°
2026-05-04 18:51 20.67400 93.33153 38944 ft 486 kts 140°
2026-05-04 18:51 20.64983 93.35522 38946 ft 486 kts 140°
2026-05-04 18:52 20.61678 93.38768 38959 ft 485 kts 140°
2026-05-04 18:52 20.56698 93.43645 38945 ft 485 kts 140°
2026-05-04 18:53 20.51723 93.48514 38953 ft 485 kts 140°
2026-05-04 18:53 20.46748 93.53382 38966 ft 485 kts 140°
2026-05-04 18:54 20.41763 93.58249 38947 ft 485 kts 140°
2026-05-04 18:54 20.36781 93.63111 38958 ft 485 kts 140°
2026-05-04 18:55 20.31845 93.67932 38957 ft 485 kts 140°
2026-05-04 18:55 20.24384 93.75194 38948 ft 484 kts 140°
2026-05-04 18:56 20.19413 93.80035 38944 ft 484 kts 140°
2026-05-04 18:56 20.14447 93.84868 38945 ft 483 kts 140°
2026-05-04 18:57 20.09482 93.89698 38947 ft 483 kts 140°
2026-05-04 18:57 20.04525 93.94517 38941 ft 482 kts 139°
2026-05-04 18:58 19.99576 93.99314 38943 ft 481 kts 140°
2026-05-04 18:58 19.94623 94.04114 38944 ft 481 kts 140°
2026-05-04 18:59 19.89675 94.08903 38944 ft 481 kts 140°
2026-05-04 18:59 19.84729 94.13679 38949 ft 480 kts 140°
2026-05-04 19:00 19.79786 94.18450 38948 ft 480 kts 140°
2026-05-04 19:00 19.74843 94.23221 38933 ft 480 kts 139°
2026-05-04 19:01 19.69902 94.28001 38947 ft 480 kts 139°
2026-05-04 19:01 19.64965 94.32767 38948 ft 479 kts 139°
2026-05-04 19:02 19.60026 94.37519 38944 ft 479 kts 139°
2026-05-04 19:02 19.55735 94.41644 38944 ft 479 kts 139°
2026-05-04 19:03 19.50915 94.46282 38939 ft 479 kts 139°
2026-05-04 19:03 19.45972 94.51042 38944 ft 479 kts 139°
2026-05-04 19:04 19.41031 94.55782 38945 ft 479 kts 140°
2026-05-04 19:04 19.36075 94.60517 38935 ft 479 kts 139°
2026-05-04 19:05 19.31134 94.65255 38941 ft 479 kts 139°
2026-05-04 19:05 19.26191 94.69986 38941 ft 479 kts 141°
2026-05-04 19:06 19.20851 94.74169 38924 ft 477 kts 146°
2026-05-04 19:06 19.15461 94.78274 38930 ft 477 kts 146°
2026-05-04 19:07 19.10077 94.82387 38930 ft 477 kts 146°
2026-05-04 19:07 19.04708 94.86502 38922 ft 477 kts 146°
2026-05-04 19:08 18.99346 94.90598 38779 ft 466 kts 146°
2026-05-04 19:08 18.96740 94.92582 38476 ft 459 kts 146°
2026-05-04 19:08 18.94234 94.94487 38086 ft 456 kts 146°
2026-05-04 19:09 18.91644 94.96456 37334 ft 458 kts 146°
2026-05-04 19:09 18.89062 94.98417 36987 ft 457 kts 146°
2026-05-04 19:09 18.86482 95.00380 36613 ft 458 kts 146°
2026-05-04 19:09 18.83927 95.02323 36252 ft 458 kts 146°
2026-05-04 19:10 18.81307 95.04317 35891 ft 458 kts 146°
2026-05-04 19:10 18.78756 95.06257 35559 ft 457 kts 146°
2026-05-04 19:10 18.76179 95.08214 35233 ft 455 kts 146°
2026-05-04 19:10 18.73621 95.10158 34909 ft 453 kts 146°
2026-05-04 19:11 18.71073 95.12097 34590 ft 450 kts 146°
2026-05-04 19:11 18.68539 95.14029 34275 ft 448 kts 146°
2026-05-04 19:11 18.66011 95.15955 33962 ft 446 kts 146°
2026-05-04 19:11 18.63498 95.17864 33618 ft 444 kts 146°
2026-05-04 19:12 18.60988 95.19764 33245 ft 442 kts 146°
2026-05-04 19:12 18.56014 95.23523 32496 ft 438 kts 146°
2026-05-04 19:12 18.53542 95.25392 32135 ft 435 kts 146°
2026-05-04 19:13 18.51085 95.27250 31776 ft 433 kts 146°
2026-05-04 19:13 18.49468 95.28477 31536 ft 432 kts 146°
2026-05-04 19:13 18.47036 95.30323 31189 ft 430 kts 146°
2026-05-04 19:13 18.44616 95.32158 30840 ft 427 kts 146°
2026-05-04 19:14 18.42204 95.33980 30489 ft 425 kts 147°
2026-05-04 19:14 18.39809 95.35781 30151 ft 423 kts 147°
2026-05-04 19:14 18.36646 95.38162 29666 ft 420 kts 147°
2026-05-04 19:14 18.35043 95.39370 29393 ft 418 kts 147°
2026-05-04 19:15 18.32688 95.41148 29003 ft 415 kts 146°
2026-05-04 19:15 18.30352 95.42919 28622 ft 413 kts 146°
2026-05-04 19:15 18.27279 95.45242 28109 ft 409 kts 147°
2026-05-04 19:15 18.25745 95.46399 27861 ft 407 kts 147°
2026-05-04 19:16 18.23448 95.48128 27490 ft 405 kts 147°
2026-05-04 19:16 18.21162 95.49850 27120 ft 402 kts 147°
2026-05-04 19:16 18.18898 95.51557 26762 ft 400 kts 147°
2026-05-04 19:16 18.16641 95.53258 26405 ft 397 kts 147°
2026-05-04 19:17 18.14401 95.54946 26050 ft 395 kts 147°
2026-05-04 19:17 18.12171 95.56621 25702 ft 393 kts 147°
2026-05-04 19:17 18.09951 95.58290 25358 ft 391 kts 147°
2026-05-04 19:17 18.07749 95.59948 25022 ft 388 kts 147°
2026-05-04 19:18 18.05564 95.61595 24685 ft 386 kts 147°
2026-05-04 19:18 18.03382 95.63238 24346 ft 384 kts 147°
2026-05-04 19:18 18.01218 95.64866 23999 ft 382 kts 147°
2026-05-04 19:18 17.99060 95.66487 23646 ft 380 kts 147°
2026-05-04 19:19 17.96916 95.68094 23270 ft 378 kts 147°
2026-05-04 19:19 17.94784 95.69690 22868 ft 375 kts 147°
2026-05-04 19:19 17.92670 95.71275 22457 ft 373 kts 146°
2026-05-04 19:19 17.90568 95.72855 22055 ft 370 kts 146°
2026-05-04 19:20 17.88483 95.74424 21660 ft 367 kts 146°
2026-05-04 19:20 17.86416 95.75980 21267 ft 363 kts 146°
2026-05-04 19:20 17.84359 95.77506 20881 ft 360 kts 148°
2026-05-04 19:20 17.82263 95.78913 20506 ft 356 kts 150°
2026-05-04 19:21 17.80173 95.80213 20134 ft 353 kts 152°
2026-05-04 19:21 17.78050 95.81486 19761 ft 350 kts 152°
2026-05-04 19:21 17.75937 95.82744 19399 ft 348 kts 152°
2026-05-04 19:21 17.73849 95.83997 19035 ft 345 kts 152°
2026-05-04 19:22 17.71775 95.85259 18680 ft 344 kts 152°
2026-05-04 19:22 17.69719 95.86524 18323 ft 342 kts 151°
2026-05-04 19:22 17.67673 95.87789 17928 ft 341 kts 151°
2026-05-04 19:22 17.65637 95.89052 17497 ft 340 kts 151°
2026-05-04 19:23 17.63597 95.90318 17069 ft 339 kts 151°
2026-05-04 19:23 17.61569 95.91574 16655 ft 339 kts 151°
2026-05-04 19:23 17.59537 95.92829 16233 ft 339 kts 152°
2026-05-04 19:23 17.57504 95.94081 15823 ft 338 kts 152°
2026-05-04 19:24 17.55479 95.95329 15421 ft 338 kts 152°
2026-05-04 19:24 17.53450 95.96582 15021 ft 337 kts 152°
2026-05-04 19:24 17.51431 95.97830 14626 ft 337 kts 152°
2026-05-04 19:24 17.49411 95.99076 14233 ft 336 kts 152°
2026-05-04 19:25 17.47401 96.00316 13855 ft 335 kts 152°
2026-05-04 19:25 17.45396 96.01557 13449 ft 334 kts 151°
2026-05-04 19:25 17.43400 96.02794 13021 ft 333 kts 151°
2026-05-04 19:25 17.41405 96.04027 12590 ft 332 kts 151°
2026-05-04 19:26 17.39419 96.05251 12170 ft 330 kts 151°
2026-05-04 19:26 17.37449 96.06463 11755 ft 328 kts 151°
2026-05-04 19:26 17.35490 96.07671 11346 ft 325 kts 151°
2026-05-04 19:26 17.33549 96.08868 10945 ft 323 kts 151°
2026-05-04 19:27 17.31644 96.10041 10504 ft 319 kts 151°
2026-05-04 19:27 17.29771 96.11198 10043 ft 306 kts 151°
2026-05-04 19:27 17.27969 96.12310 9568 ft 295 kts 151°
2026-05-04 19:27 17.26231 96.13381 9067 ft 285 kts 151°
2026-05-04 19:28 17.24546 96.14418 8578 ft 279 kts 150°
2026-05-04 19:28 17.22928 96.15412 8106 ft 277 kts 150°
2026-05-04 19:28 17.21324 96.16395 7640 ft 274 kts 150°
2026-05-04 19:28 17.19698 96.17389 7153 ft 267 kts 150°
2026-05-04 19:29 17.18116 96.18358 6647 ft 260 kts 150°
2026-05-04 19:29 17.16573 96.19310 6137 ft 255 kts 149°
2026-05-04 19:29 17.15082 96.20284 5605 ft 250 kts 148°
2026-05-04 19:29 17.13630 96.21270 5077 ft 247 kts 147°
2026-05-04 19:30 17.12199 96.22248 4554 ft 245 kts 147°
2026-05-04 19:30 17.10773 96.23222 3994 ft 244 kts 148°
2026-05-04 19:30 17.09248 96.23955 3562 ft 237 kts 167°
2026-05-04 19:30 17.07667 96.24103 3334 ft 221 kts 186°
2026-05-04 19:31 17.06217 96.23759 3115 ft 208 kts 204°
2026-05-04 19:31 17.05006 96.23059 2891 ft 191 kts 214°
2026-05-04 19:31 17.03921 96.22320 2660 ft 181 kts 215°
2026-05-04 19:31 17.02888 96.21615 2423 ft 174 kts 216°
2026-05-04 19:32 17.01896 96.20939 2208 ft 167 kts 216°
2026-05-04 19:32 17.00944 96.20290 2001 ft 161 kts 217°
2026-05-04 19:32 17.00022 96.19661 1805 ft 156 kts 217°
2026-05-04 19:32 16.99157 96.19072 1616 ft 141 kts 218°
2026-05-04 19:33 16.98366 96.18533 1401 ft 132 kts 218°
2026-05-04 19:33 16.97620 96.17994 1235 ft 129 kts 219°
2026-05-04 19:33 16.96880 96.17467 1075 ft 129 kts 218°
2026-05-04 19:33 16.96137 96.16965 929 ft 129 kts 216°
2026-05-04 19:34 16.95370 96.16464 785 ft 130 kts 214°
2026-05-04 19:34 16.94607 96.15948 668 ft 130 kts 215°
2026-05-04 19:34 16.93848 96.15430 514 ft 129 kts 213°
2026-05-04 19:34 16.93096 96.14922 326 ft 129 kts 213°
2026-05-04 19:35 16.92344 96.14417 139 ft 128 kts 212°
2026-05-04 19:35 16.91660 96.13955 95 ft 96 kts 213°
2026-05-04 19:35 16.91242 96.13673 93 ft 53 kts 213°
2026-05-04 19:35 16.90959 96.13481 96 ft 44 kts 212°
2026-05-04 19:36 16.90711 96.13314 97 ft 41 kts 213°
2026-05-04 19:36 16.90479 96.13158 96 ft 31 kts 212°
2026-05-04 19:36 16.90294 96.13099 96 ft 18 kts 183°
2026-05-04 19:36 16.90172 96.13096 98 ft 14 kts 167°
2026-05-04 19:37 16.90160 96.13179 95 ft 14 kts 33°
2026-05-04 19:37 16.90186 96.13228 95 ft 7 kts 116°
2026-05-04 19:37 16.90161 96.13268 96 ft 6 kts 123°
2026-05-04 19:37 16.90140 96.13303 96 ft 5 kts 123°
2026-05-04 19:38 16.90135 96.13311 95 ft 1 kts 123°
2026-05-04 19:38 16.90132 96.13315 95 ft 1 kts 123°
2026-05-04 19:38 16.90131 96.13317 95 ft 0 kts 123°